Location: Helds Island Access
(38.5526°N, 91.5997°W)
Time: 12:10:24
(UTC-05:00)

Daily predictions for brighter satellites

Satellite Brightness Start Highest point End
(mag) Time Altitude Azimuth Time Altitude Azimuth Time Altitude Azimuth
ERS-1 Rocket 3.1 21:01:11 10° SSE 21:06:08 63° ENE 21:11:08 10° N
Cosmos 1437 Rocket 3.7 21:05:48 10° NNE 21:09:13 30° ENE 21:12:38 10° SE
DELTA 2 R/B (1) 3.7 21:03:47 10° W 21:09:22 82° N 21:14:57 10° E
Cosmos 1515 Rocket 4.0 21:05:09 10° N 21:09:24 44° E 21:13:37 10° SSE
H-2A R/B 3.6 21:06:55 10° S 21:10:41 50° W 21:14:24 10° NNW
Cosmos 1378 4.5 21:11:29 10° SSW 21:15:04 43° W 21:18:40 10° N
Cosmos 1777 Rocket 4.1 21:10:04 10° S 21:15:12 56° ESE 21:20:20 10° NNE
COSMOS 2428 4.5 21:16:12 10° N 21:20:02 18° NE 21:23:51 10° E
SJ-11-01 4.3 21:15:23 10° SSE 21:20:05 84° ENE 21:24:50 10° N
Cosmos 2266 Rocket 4.3 21:15:04 10° SSE 21:21:04 48° E 21:27:01 10° NNE
AVUM R/B 3.0 21:19:13 10° S 21:21:19 34° ESE 21:23:34 10° NE
Meteor 1-21 Rocket 4.2 21:15:52 10° S 21:21:22 74° E 21:26:54 10° NNE
Cosmos 2151 4.0 21:19:00 10° SSE 21:22:32 27° E 21:26:06 10° NNE
Cosmos 1553 Rocket 4.1 21:18:02 10° N 21:24:28 86° E 21:30:47 10° S
Cosmos 405 4.0 21:21:37 10° NNE 21:24:54 31° ENE 21:27:44 13° SE
NOSS 3-1 (C) 4.4 21:20:34 10° SSE 21:25:03 24° ESE 21:29:50 10° ENE
YAOGAN 6 4.2 21:23:27 11° ESE 21:25:59 20° ENE 21:28:43 10° NNE
H-2A R/B 4.2 21:30:45 10° E 21:33:13 13° ENE 21:35:41 10° NNE
Cosmos 1151 Rocket 3.4 21:30:53 10° N 21:35:04 48° E 21:38:40 13° SSE
CZ-2C R/B 1.0 21:34:54 12° SSW 21:36:15 34° W 21:37:49 10° NNW
Cosmos 2219 Rocket 4.3 21:34:04 10° NNE 21:36:21 12° NE 21:38:37 10° ENE
ARGOS 4.2 21:37:03 13° ESE 21:40:58 30° ENE 21:45:36 10° N
OE (NEXTSAT) 4.4 21:37:39 10° WNW 21:41:14 79° NNE 21:43:51 17° ESE
SPOT 1/Viking Rocket 4.3 21:41:06 15° SE 21:44:51 37° ENE 21:49:34 10° N
Cosmos 1680 Rocket 3.9 21:40:45 10° N 21:45:50 48° ENE 21:49:35 17° SE
Cosmos 2058 3.7 21:46:02 18° SE 21:48:26 31° E 21:52:04 10° NNE
Cosmos 923 Rocket 4.0 21:44:24 10° NNW 21:49:35 69° ENE 21:53:34 17° SSE
H-2A R/B 2.8 21:48:39 10° S 21:53:04 56° W 21:57:32 10° NNW
CZ-4B R/B 3.8 21:48:55 10° NNE 21:54:03 50° E 21:58:43 12° S
Cosmos 2219 3.4 21:48:53 10° S 21:54:23 50° ESE 21:59:57 10° NNE
Terra 3.7 21:55:46 12° E 21:58:03 17° ENE 22:01:04 10° NNE
SL-14 R/B 4.4 21:56:58 22° ESE 21:58:15 26° E 22:01:35 10° NNE
Cosmos 1666 Rocket 4.5 21:56:36 21° SE 21:58:32 30° E 22:02:24 10° NNE
Cosmos 1898 Rocket 4.5 21:56:18 19° SE 21:58:39 27° E 22:02:59 10° NE
CZ-4 SHROUD 3.2 21:57:27 21° S 21:59:24 83° WSW 22:02:33 10° NNW
Nadezhda 2 Rocket 4.5 21:54:46 10° S 22:00:51 66° E 22:06:53 10° NNE
Cosmos 1726 3.6 21:58:35 10° NNE 22:01:40 23° ENE 22:02:46 20° ESE
Cosmos 2322 3.7 21:58:37 10° NNW 22:04:22 78° ENE 22:08:14 21° SSE
Cosmos 2237 Rocket 4.3 22:01:57 10° NNE 22:04:58 14° NE 22:07:58 10° E
USA 229 DEB 4.4 22:01:11 10° SW 22:07:59 58° NW 22:14:54 10° NNE
USA 229 4.4 22:01:17 10° SW 22:08:05 58° NW 22:15:00 10° NNE
Cosmos 2322 Rocket 3.6 22:03:25 10° NW 22:08:19 32° WSW 22:13:12 10° SSW
Cosmos 773 Rocket 4.4 22:03:38 10° NNW 22:08:46 61° WSW 22:12:51 16° S
OAO 2 Rocket 4.2 22:05:31 10° SW 22:10:02 29° SSE 22:11:38 24° SE
CZ-4 R/B 4.0 22:08:43 10° NNE 22:13:34 54° E 22:16:33 22° S
SL-16 R/B 3.8 22:13:36 10° NW 22:18:21 28° WSW 22:23:06 10° SSW
Cosmos 1908 4.4 22:14:48 10° NNW 22:18:28 39° W 22:21:33 13° SSW
ATLAS CENTAUR R/B 4.2 22:17:48 10° W 22:18:33 10° WSW 22:19:17 10° WSW
Cosmos 2360 Rocket 2.3 22:13:08 10° NNW 22:18:48 78° WSW 22:22:22 23° SSE
NOAA 11 4.3 22:16:38 25° SSE 22:19:47 64° ENE 22:25:11 10° N
NOSS 3-1 (A) 3.4 22:21:52 10° SSW 22:27:31 56° ESE 22:33:43 10° NE
Meteor 1-11 4.2 22:25:07 19° S 22:29:26 78° E 22:35:11 10° NNE
USA 32 4.4 22:26:59 10° N 22:32:05 48° E 22:34:02 33° SE
Meteor 1-4 Rocket 3.3 22:30:14 10° N 22:33:46 37° ENE 22:34:10 36° E
Delta 2 Rocket 3.1 22:32:07 10° WSW 22:35:08 47° SSW 22:35:08 47° SSW
Cosmos 2242 Rocket 3.9 22:33:34 10° N 22:37:56 51° E 22:39:06 40° SE
SPOT 5 4.2 22:34:33 13° SSW 22:37:58 32° W 22:42:11 10° NNW
Cosmos 1626 3.8 22:40:11 20° ENE 22:40:11 20° ENE 22:42:24 10° NE
Tiangong 1 3.6 22:38:53 10° SW 22:39:15 13° SW 22:39:15 13° SW
SL-08 RB Rocket 3.6 22:40:45 38° S 22:42:27 85° W 22:46:58 10° NNW
Cosmos 2227 Rocket 2.9 22:42:28 31° ESE 22:43:07 32° ESE 22:48:05 10° NE
DELTA 2 DEB (DPAF) 4.1 22:42:51 43° SSE 22:44:17 76° ENE 22:48:47 10° N
Cosmos 1300 2.9 22:41:10 10° NNW 22:45:00 68° W 22:46:04 44° SSW
USA 245 3.9 22:48:00 29° WSW 22:48:00 29° WSW 22:50:14 10° NW
ATLAS 2AS CENTAUR R/B 3.5 22:48:10 31° SE 22:50:03 35° ESE 22:57:03 10° NE
SL-23 DEB 3.4 22:47:02 10° NW 22:51:24 74° SW 22:51:39 69° S
Cosmos 2298 Rocket 4.1 22:48:23 18° SSW 22:52:27 77° WNW 22:57:48 10° NNE
Cosmos 2333 Rocket 3.1 22:47:45 10° N 22:53:05 37° ENE 22:55:11 28° ESE
Cosmos 1862 Rocket 4.4 22:50:31 10° NNE 22:54:29 34° ENE 22:54:46 33° E
CARTOSAT-1 3.6 22:54:18 52° SE 22:55:06 64° ENE 22:59:23 10° N
H-2A R/B 4.3 22:50:41 10° SW 22:55:35 42° SSE 23:23:47 10° E
H-2A R/B 4.3 22:50:42 10° SW 22:55:35 42° SSE 23:23:47 10° E
H-2A R/B 4.3 22:50:41 10° SW 22:55:36 42° SSE 23:23:47 10° E
DELTA 2 R/B (1) 3.7 22:50:20 10° W 22:55:46 57° SSW 22:57:08 44° SSE
SL-16 R/B 4.2 22:53:26 10° NNE 22:57:00 17° NE 22:59:45 12° E
Sich 1 3.4 22:56:58 31° SSW 22:58:55 61° W 23:03:17 10° N
Cosmos 1633 Rocket 3.3 22:58:07 34° SSW 22:59:53 63° W 23:04:15 10° N
Cosmos 1937 Rocket 3.4 22:58:30 39° S 23:00:28 76° ESE 23:05:41 10° NNE
COSMOS 2428 2.8 22:59:10 10° NNW 23:04:48 67° WSW 23:06:47 40° S
CZ-4C R/B 3.4 23:05:06 55° WSW 23:05:14 55° W 23:08:39 10° NNW
Cosmos 1869 4.2 23:04:07 10° N 23:07:41 36° ENE 23:07:41 36° ENE
Cosmos 1455 2.8 23:04:15 10° N 23:07:33 43° ENE 23:07:33 43° ENE
Cosmos 2297 Rocket 2.7 23:10:25 38° ESE 23:10:29 38° ESE 23:15:40 10° NE
H-2A R/B 2.1 23:10:13 46° S 23:11:51 81° WSW 23:17:18 10° NNW
ATLAS 3B R/B 4.1 23:05:57 10° NNW 23:11:57 29° NE 23:16:07 16° E
Cosmos 990 Rocket 3.8 23:13:38 56° SSE 23:14:38 72° ESE 23:19:46 10° NNE
NOSS 3-1 (C) 4.2 23:09:37 10° SW 23:15:20 53° NW 23:21:41 10° NNE
Lacrosse 4 Rocket 3.8 23:15:45 10° NNE 23:18:15 15° NE 23:19:35 13° ENE
Landsat 7 4.4 23:18:17 39° SW 23:19:30 49° W 23:24:08 10° NNW
ARGOS 4.4 23:18:34 22° SW 23:21:04 33° W 23:25:56 10° NNW
Cosmos 2219 Rocket 2.1 23:15:34 10° NNW 23:21:11 82° ENE 23:22:26 56° SE
Cosmos 1241 Rocket 4.3 23:20:29 42° S 23:22:42 73° ESE 23:28:56 10° NNE
BREEZE-M DEB (TANK) 3.9 23:25:50 10° NNW 23:27:41 31° NNE 23:27:41 31° NNE
SAR-Lupe-2 4.4 23:31:37 47° WNW 23:31:37 47° WNW 23:34:39 10° NNW
Cosmos 292 Rocket 3.9 23:27:01 10° NNW 23:31:42 59° WSW 23:32:10 56° SW
Spot 4 3.9 23:31:37 62° SSW 23:32:15 70° WSW 23:37:06 10° NNW
Terra 2.3 23:34:39 45° SW 23:35:22 49° W 23:40:00 10° NNW
Nadezhda 1 Rocket 4.0 23:29:24 10° NNW 23:35:28 72° W 23:37:15 47° SSW
Cosmos 1980 3.6 23:30:58 10° NNW 23:36:39 79° ENE 23:37:35 62° SE
Cosmos 1726 4.3 23:34:11 10° NW 23:36:52 19° W 23:37:27 18° W
Cosmos 1271 Rocket 4.1 23:35:03 10° NNW 23:38:27 31° W 23:38:28 31° W
CZ-4B R/B 4.2 23:44:09 12° NE 23:44:09 12° NE 23:44:57 10° NE
COSMOS 2455 3.7 23:38:23 10° NNW 23:44:03 40° NE 23:45:49 33° E
Cosmos 1125 Rocket 3.6 23:46:29 58° E 23:46:29 58° E 23:51:32 10° NNE
BREEZE-M TANK 4.3 23:29:30 10° WSW 23:48:00 65° NNW 23:52:06 10° ENE
Cosmos 2237 Rocket 2.0 23:44:05 10° NNW 23:49:49 88° WSW 23:50:31 70° SSE
Cosmos 2082 3.9 23:49:09 44° SW 23:50:59 70° WNW 23:56:43 10° NNE
Cosmos 1709 Rocket 3.8 23:52:26 60° S 23:53:40 89° E 23:59:48 10° N
Cosmos 1703 Rocket 4.0 23:50:51 10° N 23:54:35 55° NE 23:54:35 55° NE
